{"data":{"norad_id":66487,"intl_designator":"2025-263C","name":"STARLINK-34733","alt_names":[],"object_type":"PAYLOAD","status":"ACTIVE","operator":null,"country":"US","launch_date":"2025-11-15","launch_site_code":"AFETR","launch_vehicle":null,"mission":null,"orbit_class":"UNKNOWN","rcs_meters":null,"size_class":null,"mass_kg":null,"dimensions":null,"purposes":["comms"],"wikipedia_slug":null,"has_3d_model":false,"image_url":null,"decayed_at":null,"tle_current":{"epoch":"2026-05-25T01:36:00.402912Z","epoch_age_seconds":65984,"freshness":"FRESH","line1":"1 66487U 25263C   26145.06667133  .00016589  00000+0  61100-3 0  9998","line2":"2 66487  43.0013 279.0292 0000615 314.9426  45.1376 15.27580143 30584","mean_motion":15.27580143,"eccentricity":6.15e-5,"inclination_deg":43.0013,"raan_deg":279.0292,"arg_perigee_deg":314.9426,"mean_anomaly_deg":45.1376,"bstar":0.000611,"rev_number":3058,"period_min":94.266739889142,"perigee_km":482.62670492767,"apogee_km":483.47063076481,"semimajor_km":6861.1856678462,"source":"CELESTRAK","updated_at":"2026-05-25T13:38:21.242008Z"}}}